Weather History for PAGY - November, 2013

Change the Weather History Date:

Friday, November 22, 2013

  Actual Average Record
Temperature  
Mean Temperature 30 °F -  
Max Temperature 44 °F 35 °F 51 °F (2000)
Min Temperature 17 °F 28 °F 6 °F (1985)
Degree Days  
Heating Degree Days 34    
Moisture  
Dew Point 23 °F    
Average Humidity 83    
Maximum Humidity 93    
Minimum Humidity 73    
Precipitation  
Precipitation 0.36 in - - ()
Sea Level Pressure  
Sea Level Pressure 30.06 in    
Wind  
Wind Speed 4 mph (SSW)    
Max Wind Speed 29 mph    
Max Gust Speed 46 mph    
Visibility 5 miles    
Events Rain , Snow    
Averages and records for this station are not official NWS values.
T = Trace of Precipitation, MM = Missing Value Source: NWS Daily Summary

Daily Weather History Graph

Daily Weather History Graph

Search for Another Location

Airport or City:

Trip Planner

Search our weather history database for the weather conditions in past years. The results will help you decide how hot, cold, wet, or windy it might be!

Date:

Astronomy

Nov. 22, 2013 Rise Set
Actual Time 8:13 AM AKST 3:20 PM AKST
Civil Twilight 7:23 AM AKST 4:11 PM AKST
Nautical Twilight 6:31 AM AKST 5:03 PM AKST
Astronomical Twilight 5:42 AM AKST 5:52 PM AKST
Moon 8:23 PM AKST (11/22) 11:41 AM AKST (11/22)
Length of Visible Light 8h 47m
Length of Day
7h 07m
Waning Gibbous, 77% of the Moon is Illuminated
Nov 22
Waning Gibbous
Nov 25
Last Quarter
Dec 2
New
Dec 9
First Quarter
Dec 17
Full

Hourly Weather History & Observations

Time (AKST) Temp. Windchill Dew Point Humidity Pressure Visibility Wind Dir Wind Speed Gust Speed Precip Events Conditions
12:00 AM 17.6 °F - 12.2 °F 79% 30.25 in 3.0 mi Calm Calm - 0.00 in Snow Light Snow
12:07 AM 17.6 °F - 12.2 °F 79% 30.24 in 2.5 mi Calm Calm - 0.00 in Snow Light Snow
12:29 AM 17.6 °F - 12.2 °F 79% 30.24 in 4.0 mi Calm Calm - 0.00 in Snow Light Snow
12:53 AM 18.0 °F - 14.0 °F 84% 30.23 in 4.0 mi Calm Calm - 0.00 in Snow Light Snow
1:05 AM 19.4 °F 14.3 °F 14.0 °F 80% 30.22 in 2.5 mi West 3.5 mph - 0.00 in Snow Light Snow
1:21 AM 19.4 °F - 14.0 °F 80% 30.21 in 1.5 mi Calm Calm - 0.01 in Snow Light Snow
1:33 AM 19.4 °F - 14.0 °F 80% 30.21 in 2.5 mi Calm Calm - 0.01 in Snow Light Snow
1:53 AM 19.0 °F 13.9 °F 15.1 °F 85% 30.21 in 1.5 mi Variable 3.5 mph - 0.01 in Snow Light Snow
2:00 AM 19.4 °F - 15.8 °F 86% 30.21 in 1.0 mi Calm Calm - 0.01 in Snow Light Snow
2:05 AM 19.4 °F - 15.8 °F 86% 30.21 in 0.8 mi Calm Calm - 0.01 in Snow Light Snow
2:18 AM 19.4 °F - 15.8 °F 86% 30.20 in 1.2 mi Calm Calm - 0.02 in Snow Light Snow
2:41 AM 19.4 °F - 15.8 °F 86% 30.19 in 1.8 mi Calm Calm - 0.03 in Snow Light Snow
3:03 AM 19.4 °F - 15.8 °F 86% 30.18 in 1.0 mi Calm Calm - 0.01 in Snow Light Snow
3:12 AM 19.4 °F - 15.8 °F 86% 30.19 in 1.0 mi Calm Calm - 0.01 in Snow Light Snow
3:27 AM 19.4 °F - 15.8 °F 86% 30.18 in 1.5 mi Calm Calm - 0.02 in Snow Light Snow
3:53 AM 19.9 °F - 16.0 °F 85% 30.17 in 1.2 mi Calm Calm - 0.03 in Snow Light Snow
4:00 AM 19.4 °F - 15.8 °F 86% 30.17 in 0.8 mi Calm Calm - 0.00 in Snow Light Snow
4:30 AM 19.4 °F - 15.8 °F 86% 30.16 in 1.0 mi Calm Calm - 0.03 in Snow Light Snow
4:53 AM 19.9 °F - 16.0 °F 85% 30.15 in 1.2 mi Calm Calm - 0.04 in Snow Light Snow
5:07 AM 19.4 °F - 15.8 °F 86% 30.15 in 1.2 mi Calm Calm - 0.01 in Snow Light Snow
5:25 AM 19.4 °F - 15.8 °F 86% 30.14 in 1.8 mi Calm Calm - 0.01 in Snow Light Snow
5:53 AM 19.9 °F - 16.0 °F 85% 30.13 in 1.2 mi Calm Calm - 0.02 in Snow Light Snow
6:42 AM 19.4 °F - 15.8 °F 86% 30.11 in 1.5 mi Calm Calm - 0.01 in Snow Light Snow
6:53 AM 19.9 °F 14.9 °F 16.0 °F 85% 30.11 in 1.5 mi NNE 3.5 mph - 0.02 in Snow Light Snow
7:29 AM 19.4 °F - 17.6 °F 93% 30.09 in 2.0 mi Calm Calm - 0.00 in Snow Light Snow
7:51 AM 21.2 °F 16.4 °F 17.6 °F 86% 30.07 in 3.0 mi NE 3.5 mph - 0.00 in   Overcast
7:53 AM 21.0 °F - 17.1 °F 85% 30.07 in 3.0 mi Calm Calm - 0.00 in   Overcast
8:21 AM 21.2 °F - 17.6 °F 86% 30.06 in 6.0 mi Calm Calm - 0.01 in   Overcast
8:53 AM 23.0 °F - 19.0 °F 85% 30.04 in 10.0 mi Calm Calm - 0.01 in   Overcast
9:30 AM 28.4 °F 24.6 °F 23.0 °F 80% 30.01 in 9.0 mi Variable 3.5 mph - 0.00 in Rain Light Freezing Rain
9:51 AM 35.6 °F 29.9 °F 32.0 °F 87% 30.01 in 7.0 mi Variable 6.9 mph - 0.00 in Rain Light Rain
9:53 AM 37.0 °F 27.7 °F 33.1 °F 86% 30.00 in 8.0 mi SSW 16.1 mph 26.5 mph 0.00 in Rain Light Rain
10:04 AM 41.0 °F 31.6 °F 35.6 °F 81% 29.99 in 9.0 mi SSW 20.7 mph 34.5 mph 0.00 in Rain Light Rain
10:53 AM 44.1 °F 34.6 °F 37.0 °F 76% 29.96 in 10.0 mi SSW 26.5 mph 39.1 mph 0.00 in   Overcast
11:53 AM 44.1 °F 34.2 °F 36.0 °F 73% 29.93 in 10.0 mi SSW 28.8 mph 40.3 mph 0.02 in   Overcast
12:53 PM 44.1 °F 35.0 °F 36.0 °F 73% 29.94 in 9.0 mi SSW 24.2 mph 46.0 mph N/A   Overcast
1:53 PM 43.0 °F 33.3 °F 37.0 °F 80% 29.93 in 9.0 mi SSW 25.3 mph 44.9 mph 0.00 in Rain Light Rain
2:53 PM 42.1 °F 31.9 °F 36.0 °F 79% 29.92 in 6.0 mi SSW 26.5 mph 38.0 mph 0.02 in Rain Light Rain
3:53 PM 42.1 °F 33.3 °F 36.0 °F 79% 29.93 in 10.0 mi SSW 19.6 mph 32.2 mph 0.02 in Rain Light Rain
4:53 PM 41.0 °F 31.1 °F 36.0 °F 82% 29.92 in 10.0 mi SSW 23.0 mph 34.5 mph 0.01 in Rain Light Rain
5:53 PM 41.0 °F 31.6 °F 36.0 °F 82% 29.90 in 10.0 mi SSW 20.7 mph 33.4 mph 0.00 in   Overcast
6:53 PM 41.0 °F 31.4 °F 36.0 °F 82% 29.88 in 10.0 mi SSW 21.9 mph 29.9 mph 0.00 in   Overcast
7:53 PM 39.9 °F 30.8 °F 36.0 °F 86% 29.87 in 10.0 mi SSW 18.4 mph 28.8 mph 0.01 in   Overcast
8:53 PM 39.9 °F 30.0 °F 35.1 °F 83% 29.85 in 9.0 mi SSW 21.9 mph 28.8 mph 0.02 in Rain Light Rain
9:44 PM 39.2 °F 30.2 °F 33.8 °F 81% 29.84 in 8.0 mi SSW 17.3 mph 25.3 mph 0.02 in Rain Light Rain
9:53 PM 39.0 °F 30.6 °F 34.0 °F 82% 29.84 in 8.0 mi SSW 15.0 mph 23.0 mph 0.02 in Rain Light Rain
10:53 PM 37.9 °F 31.5 °F 34.0 °F 86% 29.82 in 7.0 mi South 9.2 mph 16.1 mph 0.05 in Rain Light Rain
11:53 PM 36.0 °F 33.3 °F 33.1 °F 89% 29.79 in 7.0 mi NNE 3.5 mph - 0.06 in Rain Light Rain